| time (UTC) | temp C | wind direction | speed KPH | gust KPH | rain 1hr cm | rain 24hr cm | rain mn cm | humidity % | barometer mb |
| 20260506124020 | 13 | 311 | 0.0 | 3.2 | 0.03 | 0.64 | 0.05 | 96 | 1007.0 |
| 20260506123525 | 13 | 0.0 | 0.0 | 0.03 | 0.64 | 0.05 | 95 | 1007.0 | |
| 20260506123118 | 13 | 312 | 0.0 | 3.2 | 0.03 | 0.64 | 0.05 | 95 | 1007.0 |
| 20260506122522 | 13 | 0.0 | 0.0 | 0.03 | 0.64 | 0.05 | 92 | 1007.0 | |
| 20260506122015 | 14 | 322 | 0.0 | 3.2 | 0.03 | 0.64 | 0.05 | 90 | 1007.0 |
| 20260506121520 | 14 | 0.0 | 0.0 | 0.03 | 0.64 | 0.05 | 89 | 1007.0 | |
| 20260506121449 | 14 | 277 | 3.2 | 8.0 | 0.00 | 0.61 | 0.03 | 85 | 1007.0 |
| 20260506120554 | 15 | 307 | 1.6 | 3.2 | 0.00 | 0.64 | 0.03 | 85 | 1007.0 |
| 20260506120022 | 14 | 6 | 1.6 | 8.0 | 0.00 | 0.64 | 0.03 | 84 | 1007.0 |
| 20260506115527 | 14 | 312 | 1.6 | 4.8 | 0.00 | 0.64 | 0.03 | 85 | 1007.0 |
| 20260506115019 | 15 | 307 | 1.6 | 8.0 | 0.00 | 0.64 | 0.03 | 85 | 1007.0 |
| 20260506114537 | 15 | 334 | 1.6 | 9.7 | 0.00 | 0.64 | 0.03 | 83 | 1007.0 |
| 20260506114030 | 15 | 309 | 1.6 | 3.2 | 0.00 | 0.64 | 0.03 | 84 | 1007.0 |
| 20260506113522 | 15 | 337 | 1.6 | 3.2 | 0.00 | 0.64 | 0.03 | 82 | 1007.0 |
| 20260506113026 | 15 | 353 | 1.6 | 3.2 | 0.00 | 0.64 | 0.03 | 83 | 1007.0 |
| 20260506112519 | 15 | 319 | 3.2 | 4.8 | 0.00 | 0.64 | 0.03 | 84 | 1007.0 |
| 20260506112023 | 15 | 302 | 1.6 | 4.8 | 0.00 | 0.66 | 0.03 | 85 | 1007.0 |
| 20260506111516 | 15 | 305 | 1.6 | 11.3 | 0.00 | 0.66 | 0.03 | 85 | 1007.0 |
| 20260506111021 | 15 | 304 | 1.6 | 6.4 | 0.00 | 0.66 | 0.03 | 85 | 1007.0 |
| 20260506110525 | 15 | 295 | 3.2 | 8.0 | 0.00 | 0.66 | 0.03 | 84 | 1007.0 |
| 20260506110018 | 15 | 303 | 3.2 | 9.7 | 0.00 | 0.66 | 0.03 | 84 | 1007.0 |
| 20260506105524 | 15 | 290 | 3.2 | 11.3 | 0.00 | 0.66 | 0.03 | 84 | 1007.0 |
| 20260506105046 | 14 | 312 | 1.6 | 4.8 | 0.00 | 0.66 | 0.03 | 88 | 1007.0 |
| 20260506104516 | 14 | 303 | 1.6 | 9.7 | 0.00 | 0.66 | 0.03 | 90 | 1007.0 |
| 20260506104021 | 14 | 300 | 1.6 | 4.8 | 0.00 | 0.66 | 0.03 | 89 | 1007.0 |
| 20260506103525 | 14 | 299 | 1.6 | 4.8 | 0.00 | 0.66 | 0.03 | 89 | 1007.0 |
| 20260506103018 | 13 | 309 | 1.6 | 3.2 | 0.00 | 0.66 | 0.03 | 91 | 1006.9 |
| 20260506102523 | 13 | 303 | 1.6 | 9.7 | 0.00 | 0.66 | 0.03 | 90 | 1006.9 |
| 20260506102016 | 13 | 302 | 1.6 | 3.2 | 0.00 | 0.66 | 0.03 | 90 | 1006.9 |
| 20260506101521 | 13 | 289 | 3.2 | 9.7 | 0.00 | 0.66 | 0.03 | 91 | 1006.9 |
| 20260506101026 | 13 | 277 | 1.6 | 9.7 | 0.00 | 0.66 | 0.03 | 91 | 1006.9 |
| 20260506100518 | 13 | 288 | 3.2 | 8.0 | 0.00 | 0.66 | 0.03 | 92 | 1006.9 |
| 20260506100023 | 13 | 290 | 3.2 | 8.0 | 0.00 | 0.66 | 0.03 | 91 | 1006.9 |
| 20260506095516 | 13 | 307 | 1.6 | 3.2 | 0.00 | 0.66 | 0.03 | 92 | 1006.9 |
| 20260506095021 | 13 | 290 | 1.6 | 8.0 | 0.00 | 0.66 | 0.03 | 92 | 1006.9 |
| 20260506094526 | 13 | 309 | 0.0 | 3.2 | 0.00 | 0.66 | 0.03 | 94 | 1006.9 |
| 20260506094019 | 13 | 311 | 1.6 | 4.8 | 0.00 | 0.66 | 0.03 | 94 | 1006.9 |
| 20260506093523 | 13 | 286 | 3.2 | 9.7 | 0.00 | 0.66 | 0.03 | 94 | 1006.9 |
| 20260506093016 | 13 | 292 | 1.6 | 11.3 | 0.00 | 0.66 | 0.03 | 94 | 1006.9 |
| 20260506092521 | 13 | 300 | 1.6 | 8.0 | 0.00 | 0.66 | 0.03 | 95 | 1006.9 |
| 20260506092026 | 13 | 316 | 1.6 | 11.3 | 0.00 | 0.66 | 0.03 | 94 | 1006.9 |
| 20260506091519 | 13 | 314 | 1.6 | 3.2 | 0.00 | 0.66 | 0.03 | 94 | 1006.9 |
| 20260506091219 | 12 | 274 | 1.6 | 6.4 | 0.00 | 0.66 | 0.03 | 95 | 1006.9 |
| 20260506090516 | 12 | 299 | 0.0 | 3.2 | 0.00 | 0.66 | 0.03 | 96 | 1006.9 |
| 20260506090254 | 12 | 312 | 1.6 | 3.2 | 0.00 | 0.66 | 0.03 | 96 | 1006.9 |
| 20260506085526 | 12 | 310 | 0.0 | 3.2 | 0.00 | 0.66 | 0.03 | 97 | 1006.9 |
| 20260506085018 | 12 | 302 | 1.6 | 3.2 | 0.00 | 0.66 | 0.03 | 97 | 1006.9 |
| 20260506084523 | 12 | 316 | 0.0 | 3.2 | 0.00 | 0.66 | 0.03 | 98 | 1006.9 |
| 20260506084016 | 12 | 297 | 1.6 | 3.2 | 0.00 | 0.66 | 0.03 | 97 | 1006.9 |
| 20260506083551 | 12 | 293 | 1.6 | 9.7 | 0.00 | 0.66 | 0.03 | 98 | 1006.9 |
| 20260506083026 | 12 | 315 | 0.0 | 3.2 | 0.00 | 0.66 | 0.03 | 98 | 1006.9 |
| 20260506082518 | 12 | 312 | 1.6 | 3.2 | 0.00 | 0.66 | 0.03 | 98 | 1006.9 |
| 20260506082023 | 12 | 315 | 0.0 | 3.2 | 0.00 | 0.66 | 0.03 | 98 | 1006.9 |
| 20260506081515 | 12 | 312 | 1.6 | 3.2 | 0.00 | 0.66 | 0.03 | 98 | 1006.9 |
| 20260506081020 | 12 | 319 | 0.0 | 3.2 | 0.00 | 0.66 | 0.03 | 99 | 1006.9 |
| 20260506080524 | 12 | 305 | 1.6 | 8.0 | 0.00 | 0.66 | 0.03 | 99 | 1006.9 |
| 20260506073527 | 12 | 310 | 1.6 | 3.2 | 0.00 | 0.66 | 0.03 | 99 | 1007.0 |
| 20260506073019 | 12 | 307 | 1.6 | 8.0 | 0.00 | 0.66 | 0.03 | 99 | 1007.0 |
| 20260506072523 | 12 | 336 | 0.0 | 3.2 | 0.00 | 0.66 | 0.03 | 99 | 1007.0 |
| 20260506072016 | 11 | 309 | 1.6 | 3.2 | 0.00 | 0.66 | 0.03 | 99 | 1006.9 |
| 20260506071750 | 11 | 303 | 0.0 | 3.2 | 0.00 | 0.66 | 0.03 | 99 | 1006.9 |
| 20260506071025 | 11 | 304 | 1.6 | 3.2 | 0.00 | 0.66 | 0.03 | 99 | 1007.0 |
| 20260506070516 | 11 | 310 | 0.0 | 3.2 | 0.00 | 0.66 | 0.03 | 99 | 1007.0 |
| 20260506070104 | 11 | 317 | 0.0 | 3.2 | 0.00 | 0.66 | 0.03 | 99 | 1007.0 |
| 20260506062020 | 11 | 273 | 0.0 | 4.8 | 0.00 | 0.66 | 0.03 | 99 | 1006.9 |
| 20260506061525 | 11 | 299 | 1.6 | 3.2 | 0.00 | 0.66 | 0.03 | 99 | 1006.9 |
| 20260506061017 | 11 | 315 | 0.0 | 1.6 | 0.00 | 0.66 | 0.03 | 99 | 1007.0 |
| 20260506060521 | 11 | 340 | 0.0 | 1.6 | 0.00 | 0.66 | 0.03 | 99 | 1007.0 |
| 20260506051021 | 10 | 319 | 0.0 | 3.2 | 0.00 | 0.66 | 0.03 | 99 | 1006.9 |
| 20260506050526 | 10 | 317 | 0.0 | 1.6 | 0.00 | 0.66 | 0.03 | 99 | 1006.9 |
| 20260506045015 | 10 | 297 | 0.0 | 3.2 | 0.00 | 0.66 | 0.03 | 99 | 1006.9 |
| 20260506044520 | 10 | 0.0 | 0.0 | 0.00 | 0.66 | 0.03 | 99 | 1006.9 | |
| 20260506044218 | 10 | 0.0 | 0.0 | 0.00 | 0.66 | 0.03 | 99 | 1006.9 | |
| 20260506043516 | 10 | 0.0 | 0.0 | 0.00 | 0.66 | 0.03 | 99 | 1006.9 | |
| 20260506043313 | 9 | 0.0 | 0.0 | 0.00 | 0.66 | 0.03 | 99 | 1006.9 | |
| 20260506042525 | 9 | 0.0 | 0.0 | 0.00 | 0.66 | 0.03 | 99 | 1006.9 | |
| 20260506042017 | 9 | 0.0 | 0.0 | 0.00 | 0.66 | 0.03 | 99 | 1006.9 | |
| 20260506041552 | 9 | 0.0 | 0.0 | 0.00 | 0.66 | 0.03 | 99 | 1006.9 | |
| 20260506041026 | 9 | 0.0 | 0.0 | 0.00 | 0.66 | 0.03 | 99 | 1006.9 | |
| 20260506040518 | 9 | 0.0 | 0.0 | 0.00 | 0.66 | 0.03 | 99 | 1006.9 | |
| 20260506040023 | 9 | 0.0 | 0.0 | 0.00 | 0.66 | 0.03 | 99 | 1006.9 | |
| 20260506035515 | 9 | 0.0 | 0.0 | 0.00 | 0.66 | 0.03 | 99 | 1006.9 | |
| 20260506035019 | 9 | 0.0 | 0.0 | 0.00 | 0.66 | 0.03 | 99 | 1006.9 | |
| 20260506034524 | 9 | 312 | 0.0 | 3.2 | 0.00 | 0.66 | 0.03 | 99 | 1006.9 |
| 20260506034116 | 9 | 0.0 | 0.0 | 0.00 | 0.66 | 0.03 | 99 | 1006.9 | |
| 20260506033520 | 9 | 0.0 | 0.0 | 0.00 | 0.66 | 0.03 | 99 | 1006.9 | |
| 20260506033025 | 9 | 0.0 | 0.0 | 0.03 | 0.66 | 0.03 | 99 | 1006.9 | |
| 20260506032518 | 10 | 0.0 | 0.0 | 0.03 | 0.66 | 0.03 | 99 | 1006.9 | |
| 20260506032022 | 10 | 0.0 | 0.0 | 0.03 | 0.66 | 0.03 | 99 | 1006.9 | |
| 20260506031526 | 10 | 0.0 | 0.0 | 0.03 | 0.66 | 0.03 | 99 | 1006.9 | |
| 20260506031019 | 10 | 0.0 | 0.0 | 0.03 | 0.66 | 0.03 | 99 | 1006.9 | |
| 20260506030523 | 10 | 0.0 | 0.0 | 0.03 | 0.66 | 0.03 | 99 | 1006.9 | |
| 20260506030016 | 10 | 0.0 | 0.0 | 0.03 | 0.66 | 0.03 | 99 | 1006.9 | |
| 20260506025520 | 10 | 0.0 | 0.0 | 0.03 | 0.66 | 0.03 | 99 | 1006.9 | |
| 20260506025025 | 10 | 0.0 | 0.0 | 0.03 | 0.66 | 0.03 | 99 | 1006.9 | |
| 20260506024517 | 10 | 0.0 | 0.0 | 0.03 | 0.66 | 0.03 | 99 | 1006.9 | |
| 20260506024022 | 10 | 0.0 | 0.0 | 0.03 | 0.66 | 0.03 | 99 | 1006.9 | |
| 20260506023526 | 10 | 0.0 | 0.0 | 0.03 | 0.66 | 0.03 | 99 | 1006.9 | |
| 20260506023019 | 10 | 0.0 | 0.0 | 0.00 | 0.64 | 0.00 | 99 | 1006.9 | |
| 20260506022537 | 10 | 0.0 | 0.0 | 0.00 | 0.64 | 0.00 | 99 | 1007.0 | |
| 20260506022059 | 10 | 0.0 | 0.0 | 0.00 | 0.64 | 0.00 | 99 | 1007.0 | |
| 20260506021551 | 10 | 0.0 | 0.0 | 0.00 | 0.64 | 0.00 | 99 | 1007.0 | |
| 20260506021025 | 10 | 0.0 | 0.0 | 0.00 | 0.64 | 0.00 | 99 | 1007.0 | |
| 20260506020517 | 11 | 0.0 | 0.0 | 0.00 | 0.64 | 0.00 | 99 | 1007.0 | |
| 20260506020022 | 11 | 0.0 | 0.0 | 0.00 | 0.64 | 0.00 | 99 | 1007.0 | |
| 20260506015526 | 11 | 0.0 | 0.0 | 0.00 | 0.64 | 0.00 | 99 | 1007.0 | |
| 20260506015049 | 11 | 0.0 | 0.0 | 0.00 | 0.64 | 0.00 | 99 | 1007.0 | |
| 20260506014523 | 11 | 0.0 | 0.0 | 0.00 | 0.64 | 0.00 | 99 | 1007.0 | |
| 20260506014016 | 11 | 0.0 | 0.0 | 0.00 | 0.64 | 0.00 | 99 | 1007.0 | |
| 20260506013521 | 11 | 0.0 | 0.0 | 0.00 | 0.64 | 0.00 | 99 | 1007.8 | |
| 20260506013025 | 11 | 0.0 | 0.0 | 0.00 | 0.64 | 0.00 | 99 | 1008.0 | |
| 20260506012518 | 11 | 0.0 | 0.0 | 0.00 | 0.64 | 0.00 | 99 | 1008.0 | |
| 20260506012022 | 11 | 0.0 | 0.0 | 0.00 | 0.64 | 0.00 | 99 | 1007.3 | |
| 20260506011527 | 11 | 0.0 | 0.0 | 0.00 | 0.64 | 0.00 | 99 | 1007.0 | |
| 20260506011119 | 11 | 0.0 | 0.0 | 0.00 | 0.64 | 0.00 | 99 | 1007.0 | |
| 20260506010943 | 11 | 336 | 0.0 | 0.0 | 0.00 | 0.64 | 0.00 | 99 | 1007.0 |
| 20260506010016 | 11 | 0.0 | 0.0 | 0.00 | 0.64 | 0.00 | 99 | 1007.0 | |
| 20260506005521 | 11 | 0.0 | 0.0 | 0.00 | 0.64 | 0.00 | 99 | 1007.0 | |
| 20260506005026 | 11 | 0.0 | 0.0 | 0.00 | 0.64 | 0.00 | 99 | 1007.7 | |
| 20260506004518 | 11 | 0.0 | 0.0 | 0.00 | 0.64 | 0.00 | 99 | 1008.0 | |
| 20260506004023 | 11 | 0.0 | 0.0 | 0.00 | 0.64 | 0.00 | 99 | 1008.0 | |
| 20260506003515 | 12 | 0.0 | 0.0 | 0.00 | 0.64 | 0.00 | 99 | 1008.1 | |
| 20260506003020 | 12 | 0.0 | 0.0 | 0.00 | 0.64 | 0.00 | 99 | 1008.1 | |
| 20260506002524 | 12 | 0.0 | 0.0 | 0.00 | 0.64 | 0.00 | 99 | 1008.1 | |
| 20260506002017 | 12 | 0.0 | 0.0 | 0.00 | 0.64 | 0.00 | 99 | 1008.1 | |
| 20260506001522 | 12 | 318 | 0.0 | 1.6 | 0.00 | 0.64 | 0.00 | 99 | 1008.1 |
| 20260506001126 | 12 | 319 | 0.0 | 1.6 | 0.00 | 0.64 | 0.00 | 99 | 1008.1 |
| 20260506000519 | 12 | 323 | 0.0 | 0.0 | 0.00 | 0.64 | 0.00 | 99 | 1008.0 |
| 20260506000024 | 12 | 309 | 0.0 | 1.6 | 0.00 | 0.64 | 0.00 | 99 | 1008.0 |
| 20260505235516 | 12 | 316 | 0.0 | 3.2 | 0.00 | 0.64 | 0.00 | 99 | 1008.0 |
| 20260505235021 | 12 | 319 | 0.0 | 0.0 | 0.00 | 0.64 | 0.00 | 99 | 1008.0 |
| 20260505234526 | 12 | 318 | 0.0 | 1.6 | 0.00 | 0.64 | 0.00 | 99 | 1008.0 |
| 20260505234018 | 12 | 311 | 1.6 | 3.2 | 0.00 | 0.64 | 0.00 | 99 | 1008.0 |
| 20260505233553 | 12 | 313 | 0.0 | 1.6 | 0.00 | 0.64 | 0.00 | 99 | 1008.1 |
| 20260505233016 | 12 | 321 | 0.0 | 1.6 | 0.00 | 0.64 | 0.00 | 99 | 1008.1 |
| 20260505232520 | 11 | 324 | 0.0 | 3.2 | 0.00 | 0.64 | 0.00 | 99 | 1008.0 |
| 20260505232055 | 11 | 0.0 | 0.0 | 0.00 | 0.64 | 0.00 | 99 | 1008.0 | |
| 20260505231518 | 11 | 0.0 | 0.0 | 0.00 | 0.64 | 0.00 | 99 | 1008.0 | |
| 20260505231022 | 11 | 0.0 | 0.0 | 0.00 | 0.64 | 0.00 | 99 | 1008.0 | |
| 20260505230545 | 11 | 0.0 | 0.0 | 0.00 | 0.64 | 0.00 | 99 | 1008.0 | |
| 20260505230019 | 11 | 0.0 | 0.0 | 0.00 | 0.64 | 0.00 | 99 | 1008.0 | |
| 20260505225524 | 11 | 0.0 | 0.0 | 0.00 | 0.64 | 0.00 | 99 | 1008.0 | |
| 20260505225016 | 11 | 0.0 | 0.0 | 0.00 | 0.64 | 0.00 | 99 | 1008.0 | |
| 20260505224516 | 11 | 0.0 | 0.0 | 0.00 | 0.64 | 0.00 | 99 | 1008.0 | |
| 20260505224120 | 11 | 0.0 | 0.0 | 0.00 | 0.64 | 0.00 | 99 | 1008.0 | |
| 20260505223525 | 11 | 0.0 | 0.0 | 0.00 | 0.64 | 0.00 | 99 | 1008.0 | |
| 20260505223017 | 11 | 0.0 | 0.0 | 0.00 | 0.64 | 0.00 | 99 | 1008.0 | |
| 20260505222522 | 11 | 0.0 | 0.0 | 0.00 | 0.64 | 0.00 | 99 | 1008.0 | |
| 20260505222027 | 11 | 0.0 | 0.0 | 0.00 | 0.64 | 0.00 | 99 | 1008.0 | |
| 20260505221519 | 11 | 0.0 | 0.0 | 0.00 | 0.64 | 0.00 | 99 | 1008.0 | |
| 20260505221107 | 11 | 0.0 | 0.0 | 0.00 | 0.64 | 0.00 | 99 | 1008.0 | |
| 20260505220530 | 11 | 0.0 | 0.0 | 0.00 | 0.64 | 0.00 | 99 | 1008.0 | |
| 20260505220052 | 11 | 0.0 | 0.0 | 0.00 | 0.64 | 0.00 | 99 | 1008.0 | |
| 20260505215526 | 11 | 0.0 | 0.0 | 0.00 | 0.64 | 0.64 | 99 | 1008.0 | |
| 20260505215018 | 11 | 0.0 | 0.0 | 0.00 | 0.64 | 0.64 | 99 | 1008.0 | |
| 20260505214523 | 11 | 0.0 | 0.0 | 0.00 | 0.64 | 0.64 | 99 | 1008.0 | |
| 20260505214015 | 11 | 0.0 | 0.0 | 0.00 | 0.64 | 0.64 | 99 | 1008.0 | |
| 20260505213520 | 11 | 0.0 | 0.0 | 0.00 | 0.64 | 0.64 | 99 | 1008.0 | |
| 20260505213025 | 11 | 0.0 | 0.0 | 0.00 | 0.64 | 0.64 | 99 | 1008.0 | |
| 20260505212517 | 11 | 0.0 | 0.0 | 0.00 | 0.64 | 0.64 | 99 | 1008.0 | |
| 20260505212051 | 11 | 0.0 | 0.0 | 0.00 | 0.64 | 0.64 | 99 | 1008.0 | |
| 20260505211526 | 11 | 0.0 | 0.0 | 0.00 | 0.64 | 0.64 | 99 | 1008.0 | |
| 20260505211018 | 11 | 0.0 | 0.0 | 0.00 | 0.64 | 0.64 | 99 | 1008.0 | |
| 20260505210523 | 11 | 0.0 | 0.0 | 0.00 | 0.64 | 0.64 | 99 | 1008.0 | |
| 20260505210016 | 11 | 0.0 | 0.0 | 0.00 | 0.64 | 0.64 | 99 | 1008.0 | |
| 20260505205520 | 12 | 0.0 | 0.0 | 0.00 | 0.64 | 0.64 | 99 | 1008.0 | |
| 20260505205025 | 12 | 0.0 | 0.0 | 0.00 | 0.64 | 0.64 | 99 | 1008.0 | |
| 20260505204517 | 12 | 0.0 | 0.0 | 0.00 | 0.64 | 0.64 | 99 | 1008.0 | |
| 20260505204022 | 12 | 0.0 | 0.0 | 0.00 | 0.64 | 0.64 | 99 | 1008.0 | |
| 20260505203527 | 12 | 0.0 | 0.0 | 0.00 | 0.64 | 0.64 | 99 | 1008.0 | |
| 20260505203020 | 12 | 0.0 | 0.0 | 0.00 | 0.64 | 0.64 | 99 | 1008.0 | |
| 20260505202524 | 12 | 0.0 | 0.0 | 0.00 | 0.64 | 0.64 | 99 | 1008.0 | |
| 20260505202017 | 12 | 0.0 | 0.0 | 0.00 | 0.64 | 0.64 | 99 | 1008.0 | |
| 20260505201522 | 12 | 0.0 | 0.0 | 0.00 | 0.64 | 0.64 | 99 | 1008.0 | |
| 20260505201027 | 12 | 0.0 | 0.0 | 0.00 | 0.64 | 0.64 | 99 | 1008.0 | |
| 20260505200519 | 12 | 0.0 | 0.0 | 0.00 | 0.64 | 0.64 | 99 | 1008.0 | |
| 20260505200024 | 12 | 0.0 | 0.0 | 0.00 | 0.64 | 0.64 | 99 | 1008.0 | |
| 20260505195516 | 12 | 326 | 0.0 | 1.6 | 0.00 | 0.64 | 0.64 | 99 | 1008.0 |
| 20260505195021 | 12 | 0.0 | 0.0 | 0.00 | 0.64 | 0.64 | 99 | 1008.0 | |
| 20260505194555 | 12 | 0.0 | 0.0 | 0.00 | 0.64 | 0.64 | 99 | 1008.0 | |
| 20260505194018 | 12 | 0.0 | 0.0 | 0.00 | 0.64 | 0.64 | 99 | 1008.0 | |
| 20260505193523 | 12 | 0.0 | 0.0 | 0.03 | 0.64 | 0.64 | 99 | 1008.0 | |
| 20260505193015 | 12 | 0.0 | 0.0 | 0.03 | 0.64 | 0.64 | 99 | 1008.0 | |
| 20260505192520 | 13 | 0.0 | 0.0 | 0.08 | 0.64 | 0.64 | 99 | 1008.0 | |
| 20260505192025 | 13 | 0.0 | 0.0 | 0.13 | 0.64 | 0.64 | 99 | 1008.0 | |
| 20260505191518 | 13 | 0.0 | 0.0 | 0.13 | 0.64 | 0.64 | 99 | 1008.0 | |
| 20260505191145 | 13 | 0.0 | 0.0 | 0.13 | 0.64 | 0.64 | 99 | 1008.0 | |
| 20260505190516 | 13 | 0.0 | 0.0 | 0.13 | 0.64 | 0.64 | 99 | 1008.0 | |
| 20260505190218 | 13 | 0.0 | 0.0 | 0.13 | 0.64 | 0.64 | 99 | 1008.0 | |
| 20260505185526 | 13 | 0.0 | 0.0 | 0.13 | 0.64 | 0.64 | 99 | 1008.0 | |
| 20260505185018 | 13 | 0.0 | 0.0 | 0.15 | 0.64 | 0.64 | 99 | 1008.0 | |
| 20260505184523 | 13 | 302 | 0.0 | 3.2 | 0.15 | 0.64 | 0.64 | 99 | 1008.0 |
| 20260505184016 | 13 | 0.0 | 0.0 | 0.15 | 0.64 | 0.64 | 99 | 1008.0 | |
| 20260505183520 | 13 | 0.0 | 0.0 | 0.13 | 0.61 | 0.61 | 99 | 1008.0 | |
| 20260505183025 | 13 | 0.0 | 0.0 | 0.13 | 0.61 | 0.61 | 99 | 1008.0 | |
| 20260505182518 | 13 | 0.0 | 0.0 | 0.08 | 0.56 | 0.56 | 99 | 1008.0 | |
| 20260505182053 | 13 | 0.0 | 0.0 | 0.03 | 0.51 | 0.51 | 99 | 1008.0 | |
| 20260505181515 | 13 | 0.0 | 0.0 | 0.05 | 0.51 | 0.51 | 99 | 1008.0 | |
| 20260505181020 | 13 | 323 | 0.0 | 1.6 | 0.10 | 0.51 | 0.51 | 99 | 1008.0 |
| 20260505180525 | 13 | 329 | 0.0 | 1.6 | 0.10 | 0.51 | 0.51 | 99 | 1008.0 |
| 20260505180017 | 13 | 348 | 0.0 | 1.6 | 0.10 | 0.51 | 0.51 | 99 | 1008.0 |
| 20260505175552 | 14 | 323 | 0.0 | 0.0 | 0.13 | 0.51 | 0.51 | 99 | 1008.0 |
| 20260505175057 | 14 | 0.0 | 0.0 | 0.10 | 0.48 | 0.48 | 99 | 1008.0 | |
| 20260505174550 | 14 | 0.0 | 0.0 | 0.10 | 0.48 | 0.48 | 98 | 1008.0 | |
| 20260505174024 | 14 | 0.0 | 0.0 | 0.10 | 0.48 | 0.48 | 97 | 1008.0 | |
| 20260505173517 | 14 | 0.0 | 0.0 | 0.10 | 0.48 | 0.48 | 97 | 1008.0 | |
| 20260505173022 | 14 | 0.0 | 0.0 | 0.10 | 0.48 | 0.48 | 97 | 1008.0 | |
| 20260505172540 | 14 | 322 | 0.0 | 3.2 | 0.10 | 0.48 | 0.48 | 97 | 1008.0 |
| 20260505172033 | 14 | 0.0 | 0.0 | 0.10 | 0.48 | 0.48 | 96 | 1008.0 | |
| 20260505171555 | 15 | 0.0 | 0.0 | 0.08 | 0.46 | 0.46 | 96 | 1008.0 | |
| 20260505171048 | 15 | 0.0 | 0.0 | 0.03 | 0.41 | 0.41 | 96 | 1008.0 | |
| 20260505170522 | 15 | 0.0 | 0.0 | 0.03 | 0.41 | 0.41 | 95 | 1008.0 | |
| 20260505170015 | 15 | 0.0 | 0.0 | 0.03 | 0.41 | 0.41 | 95 | 1008.0 | |
| 20260505165550 | 15 | 0.0 | 0.0 | 0.00 | 0.38 | 0.38 | 95 | 1008.0 | |
| 20260505165025 | 15 | 0.0 | 0.0 | 0.00 | 0.38 | 0.38 | 94 | 1008.0 | |
| 20260505164518 | 15 | 0.0 | 0.0 | 0.00 | 0.38 | 0.38 | 94 | 1008.0 | |
| 20260505164023 | 15 | 0.0 | 0.0 | 0.00 | 0.38 | 0.38 | 94 | 1008.0 | |
| 20260505163515 | 15 | 0.0 | 0.0 | 0.00 | 0.38 | 0.38 | 94 | 1008.0 | |
| 20260505163020 | 15 | 0.0 | 0.0 | 0.00 | 0.38 | 0.38 | 93 | 1008.0 | |
| 20260505162525 | 15 | 0.0 | 0.0 | 0.00 | 0.38 | 0.38 | 93 | 1008.0 | |
| 20260505162018 | 15 | 0.0 | 0.0 | 0.00 | 0.38 | 0.38 | 93 | 1008.0 | |
| 20260505161553 | 15 | 0.0 | 0.0 | 0.00 | 0.38 | 0.38 | 93 | 1008.0 | |
| 20260505161017 | 15 | 8 | 0.0 | 0.0 | 0.00 | 0.38 | 0.38 | 92 | 1008.0 |
| 20260505160521 | 15 | 358 | 0.0 | 1.6 | 0.00 | 0.38 | 0.38 | 94 | 1008.0 |
| 20260505153020 | 15 | 0.0 | 0.0 | 0.00 | 0.38 | 0.38 | 95 | 1008.0 | |
| 20260505152525 | 15 | 0.0 | 0.0 | 0.03 | 0.38 | 0.38 | 95 | 1008.0 | |
| 20260505152017 | 15 | 0.0 | 0.0 | 0.05 | 0.38 | 0.38 | 95 | 1008.0 | |
| 20260505151522 | 15 | 0.0 | 0.0 | 0.13 | 0.38 | 0.38 | 95 | 1008.0 | |
| 20260505151028 | 15 | 0.0 | 0.0 | 0.18 | 0.38 | 0.38 | 95 | 1008.0 | |
| 20260505150521 | 15 | 0.0 | 0.0 | 0.23 | 0.38 | 0.38 | 95 | 1008.0 | |
| 20260505140518 | 15 | 0.0 | 0.0 | 0.08 | 0.15 | 0.15 | 95 | 1009.1 | |
| 20260505125019 | 15 | 319 | 0.0 | 0.0 | 0.05 | 0.08 | 0.08 | 92 | 1009.1 |
| 20260505124524 | 15 | 0.0 | 0.0 | 0.05 | 0.08 | 0.08 | 92 | 1009.1 |